Theta_e
314 314 315 316 319 321 323 324 325 326 327 326 325 327 329 327 326 326 323 320 320 321 321 319 319 316 316 319 320 321 321 320 321 322 323 323 322 321 321 321 321 321 322 322 323 323 323 323 324 325 328 324 315 314 316 315 315 317 322 325 325 326 325 323 322 317 317 321 315 313 316 320 321 317 316 318 318 319 321 323 324 325 323 323 323 322 322 321
313 314 314 314 317 320 321 323 325 325 327 327 326 326 327 328 327 327 324 320 319 320 320 319 319 316 316 319 319 319 320 319 319 319 321 322 323 322 322 322 321 321 321 322 323 323 322 323 324 324 328 323 315 313 316 315 314 319 323 324 330 330 323 319 318 314 314 317 314 314 315 317 320 317 316 319 319 320 323 323 322 324 324 323 323 322 323 322
313 314 314 314 315 317 320 322 323 325 326 327 327 325 326 328 327 327 326 321 318 318 319 317 317 316 317 319 321 321 321 320 320 319 319 322 323 323 323 322 322 322 321 321 323 324 322 323 323 322 324 323 317 314 316 317 314 317 318 325 334 325 317 316 315 315 314 314 313 314 315 315 317 317 317 318 320 321 323 322 321 323 323 323 323 323 323 324
313 313 313 314 314 315 318 320 321 323 325 326 327 326 324 326 327 327 326 323 319 317 318 318 317 317 317 318 320 320 320 320 320 320 320 321 322 322 322 322 322 322 322 321 322 323 323 323 319 316 320 320 316 314 316 318 316 315 315 328 331 315 314 317 314 314 313 313 313 313 315 314 315 316 317 317 321 323 320 319 320 321 321 322 323 324 324 324
312 313 313 314 314 313 314 317 319 321 323 325 326 326 324 324 326 327 327 325 321 318 317 318 318 318 317 317 318 318 320 322 322 320 321 321 321 322 321 321 321 321 321 321 322 322 322 324 320 314 317 317 314 314 316 316 315 315 315 321 322 313 313 315 313 314 313 313 313 313 314 315 315 315 316 317 321 322 319 318 319 318 319 320 321 323 324 324
311 312 313 313 314 314 313 314 317 320 321 324 325 326 326 324 323 325 327 326 323 320 318 318 318 318 318 318 318 319 322 324 322 320 322 322 321 322 321 321 321 321 321 320 322 323 322 324 324 316 314 314 313 313 315 314 313 317 319 316 316 314 313 314 314 313 313 313 313 313 315 315 315 315 315 316 319 318 318 319 318 318 318 319 320 321 323 323
311 311 312 312 313 313 313 311 314 318 320 322 324 326 326 325 323 322 325 327 325 322 320 319 320 320 320 319 318 320 322 323 321 320 322 322 321 320 320 320 320 320 320 321 322 323 322 323 325 319 313 313 314 313 315 315 312 315 320 317 316 314 312 313 314 313 313 313 313 314 314 314 315 316 314 315 318 318 317 318 318 318 318 319 320 320 321 321
310 310 311 312 312 313 313 310 312 316 319 320 322 324 326 326 324 322 322 326 326 323 321 320 322 323 322 321 321 322 322 322 320 320 321 321 321 320 320 320 320 320 319 320 321 321 322 322 323 320 314 313 314 313 313 314 313 314 318 317 315 313 313 313 313 313 313 313 314 314 313 314 315 314 313 315 318 317 317 318 317 318 318 318 319 320 320 320
309 309 310 310 311 312 312 311 311 315 317 319 321 322 326 326 325 323 323 326 327 325 323 320 321 323 324 323 322 323 322 320 319 320 320 320 321 320 321 321 320 321 320 321 321 320 321 322 322 320 315 313 313 313 312 313 313 313 315 314 313 313 313 313 313 313 313 313 314 313 313 313 313 313 314 316 317 317 317 317 317 317 318 319 318 319 320 320
307 308 309 309 310 311 312 311 311 313 314 317 320 320 323 326 326 324 324 326 327 326 325 322 321 322 324 324 323 323 322 319 319 319 319 320 320 321 321 321 321 321 321 321 321 321 322 322 322 320 316 313 313 313 312 313 314 312 312 313 314 315 313 312 313 313 313 313 313 314 314 312 312 313 316 318 316 316 317 317 316 316 318 318 318 318 319 319
307 307 307 308 309 310 312 312 311 312 311 314 318 318 320 325 326 325 323 324 325 326 326 324 323 323 324 324 323 323 322 320 320 319 319 319 319 320 321 321 322 322 322 322 323 323 322 322 321 318 316 313 313 313 311 312 313 311 311 313 314 314 314 313 312 313 313 313 313 313 313 311 312 314 316 316 315 316 316 316 316 315 317 318 318 318 319 319
306 306 306 306 307 308 310 311 311 311 310 312 316 318 319 323 326 325 323 323 324 325 326 326 324 323 323 324 324 322 321 321 321 320 320 320 319 320 321 322 322 322 323 322 323 323 323 323 321 317 315 314 312 312 312 312 312 311 312 315 315 314 315 314 312 312 313 313 313 312 314 314 314 315 316 315 315 315 314 315 316 315 315 316 318 318 318 319
306 306 307 307 306 307 308 310 311 312 311 311 315 318 318 319 323 325 324 322 323 325 326 326 325 324 323 324 323 322 321 322 322 322 321 320 320 321 321 322 323 323 323 323 323 323 323 323 319 315 314 313 312 312 313 311 311 313 313 314 316 314 315 313 311 312 312 313 313 312 316 319 317 315 314 314 314 314 314 314 315 315 315 315 316 318 318 318
306 306 307 307 307 306 306 308 310 312 312 311 313 318 318 317 320 324 325 323 324 326 326 326 325 324 324 324 323 322 322 322 322 323 322 323 322 322 322 322 323 323 323 323 323 323 324 322 317 314 313 313 312 312 313 312 312 315 313 313 315 316 318 316 310 311 313 313 313 312 316 320 319 314 313 314 314 314 314 314 314 315 314 315 316 316 317 317
306 306 306 306 307 307 306 306 308 310 312 312 312 316 318 317 317 321 325 323 324 327 326 326 325 324 323 323 323 323 323 322 322 323 323 324 323 323 323 323 323 323 323 323 323 324 322 319 314 312 313 312 312 313 314 314 315 316 315 316 316 314 320 319 310 310 314 313 311 312 316 318 316 314 313 314 314 314 314 314 314 314 314 315 315 316 316 316
306 306 305 305 306 307 306 305 307 309 311 312 312 314 317 317 315 318 324 325 323 325 326 325 325 323 323 324 323 324 324 323 323 323 323 323 323 323 323 323 324 323 324 323 322 321 318 315 313 312 312 311 312 315 315 314 314 315 316 318 318 315 317 317 312 310 312 312 312 312 315 319 316 311 312 313 312 313 313 314 314 314 314 315 315 315 315 316
306 306 306 305 305 306 306 305 306 308 310 312 312 313 316 317 315 315 320 324 324 325 326 325 325 323 323 322 322 323 323 324 324 323 322 323 323 323 323 324 323 324 324 322 318 315 314 313 312 313 312 311 312 315 316 315 315 315 315 317 318 316 314 314 314 312 310 311 313 312 313 318 317 311 311 312 312 312 312 313 314 314 315 314 315 315 315 315
305 306 305 305 305 305 306 306 305 307 308 311 311 312 315 318 317 315 318 325 326 325 326 325 323 324 323 320 321 323 323 324 324 323 322 322 323 323 323 324 323 323 321 318 314 312 312 312 311 313 313 312 311 313 317 316 316 315 315 315 315 314 313 314 315 313 311 312 314 314 313 315 317 312 311 312 312 312 312 312 313 314 315 315 315 315 315 315
305 306 305 305 305 305 306 306 306 306 307 310 311 312 314 317 318 317 317 323 327 324 325 323 323 326 325 321 321 323 322 322 323 323 323 322 324 324 324 323 323 321 319 317 315 313 312 311 312 314 314 312 311 312 317 317 316 316 314 314 314 314 313 314 315 312 310 312 313 314 314 314 315 314 312 312 311 311 312 312 312 313 314 314 314 315 315 315
305 305 306 305 305 305 306 306 306 306 307 309 311 312 315 318 319 319 317 320 324 325 324 323 323 324 323 321 321 322 322 322 323 323 322 323 324 324 324 323 321 320 319 319 317 313 313 313 313 314 313 313 311 312 316 316 315 315 313 313 313 314 313 313 315 312 308 312 314 313 313 314 315 315 313 311 310 310 310 311 312 313 314 314 314 314 314 315
304 305 305 305 305 306 306 307 307 307 307 309 311 312 315 318 319 319 319 319 321 324 324 322 324 323 321 321 321 321 322 322 322 323 323 323 324 323 323 322 321 321 318 316 314 312 313 315 314 314 314 313 312 312 313 313 313 313 314 313 313 314 314 313 313 312 309 311 316 314 313 313 313 314 313 310 309 309 309 310 311 313 314 314 313 314 314 315
304 305 304 304 305 306 307 308 308 307 307 308 311 312 313 316 318 317 319 320 320 322 323 322 323 322 321 322 321 321 321 320 321 323 323 323 324 322 321 322 324 320 315 315 316 314 313 315 315 313 312 314 313 312 312 312 312 313 314 314 314 314 314 313 313 313 311 311 316 316 313 314 313 312 311 309 309 310 311 311 312 314 313 313 314 314 315 314
304 304 303 303 304 306 307 308 309 308 307 309 311 313 312 313 316 316 318 321 322 322 322 322 322 320 319 320 321 321 321 319 320 322 323 323 323 322 321 322 322 317 313 316 319 318 315 315 313 311 311 314 314 311 312 312 312 313 314 315 315 314 313 313 312 312 312 311 314 314 313 314 313 312 312 310 309 311 312 312 313 313 313 313 314 314 315 314
304 303 303 303 304 306 307 307 309 309 308 309 309 311 311 311 315 317 317 320 321 320 320 322 321 319 318 319 321 321 320 319 320 321 323 323 321 321 321 322 320 316 314 315 317 317 316 313 311 310 312 315 313 310 311 312 312 313 313 314 315 315 313 313 313 312 313 312 311 312 314 314 314 314 314 312 309 308 311 311 311 312 313 313 313 313 314 314
303 303 303 304 305 306 307 307 308 308 309 309 308 309 311 311 313 316 317 319 320 318 318 322 320 317 318 320 321 321 320 319 319 321 322 322 321 319 320 321 319 318 316 314 314 316 315 311 310 310 311 315 314 312 312 313 313 313 313 313 315 317 315 313 314 313 313 315 313 313 314 317 321 320 314 313 311 309 309 308 308 312 313 312 312 313 314 315
302 302 303 304 305 306 307 308 308 308 309 309 307 308 310 311 313 315 317 319 319 318 318 321 320 318 318 319 319 320 321 319 319 322 322 321 321 319 319 318 318 319 316 312 313 314 314 311 310 312 312 315 316 314 313 313 312 313 313 313 313 314 314 314 316 314 315 318 314 312 312 318 324 320 315 316 314 313 311 307 307 310 311 311 312 314 315 315
301 302 304 304 305 306 307 308 308 308 309 309 307 307 310 311 313 315 318 320 320 318 318 320 319 319 318 318 319 320 322 319 317 320 321 320 320 319 320 317 316 316 312 312 316 315 312 310 310 312 312 314 315 314 314 313 313 314 314 315 314 312 313 315 316 316 317 317 315 313 312 314 316 315 317 318 315 316 314 312 309 308 310 312 313 315 315 315
301 303 304 304 305 306 307 308 310 309 309 309 307 308 310 312 314 316 318 322 321 317 318 318 317 318 318 318 319 318 319 319 316 318 319 319 318 317 319 318 316 314 310 314 320 314 309 311 311 312 312 312 313 314 314 312 314 315 313 316 315 313 314 315 315 316 316 315 315 315 312 312 315 318 320 317 314 315 315 316 313 308 311 313 313 315 315 314
302 303 304 304 305 306 307 309 310 310 308 308 308 309 310 312 314 316 319 322 319 316 317 317 316 316 316 317 318 315 316 318 317 317 316 316 316 316 317 316 314 313 309 313 319 312 308 310 310 310 312 312 312 314 314 313 314 311 311 316 318 318 318 315 315 315 314 313 315 317 314 312 317 320 318 313 313 314 314 317 314 308 311 314 314 314 314 315
303 304 304 304 305 306 308 310 310 310 307 308 309 310 312 313 314 317 321 320 317 314 316 317 315 315 315 317 317 314 315 316 314 314 313 313 313 313 314 314 312 313 311 312 316 313 309 308 308 310 311 310 311 311 309 311 312 309 313 318 317 320 321 317 320 318 313 314 314 316 316 312 315 318 315 314 316 317 315 316 314 310 310 312 313 313 313 314
303 303 303 304 305 307 310 311 310 310 309 309 310 311 313 315 315 318 320 318 316 315 315 316 315 315 316 317 316 315 315 314 312 312 312 311 311 310 312 315 313 313 313 313 314 312 309 308 308 308 308 309 310 310 308 309 309 310 317 318 315 319 318 317 322 317 312 315 313 313 315 312 314 315 313 314 317 318 315 315 317 313 310 311 312 313 313 313
302 303 303 304 307 309 312 312 310 310 310 310 311 312 314 316 316 318 318 316 316 316 314 315 315 315 317 317 315 314 315 314 310 311 311 311 310 309 313 316 314 315 315 314 314 312 311 312 310 308 308 309 311 313 312 311 311 312 316 315 313 317 315 314 318 315 315 316 311 311 313 312 313 315 314 315 316 314 310 310 313 311 309 311 312 313 313 314
302 302 303 305 308 310 313 313 310 311 311 310 312 313 315 317 317 317 316 315 315 315 314 313 314 315 317 316 314 314 315 314 311 311 311 312 311 310 313 314 313 317 317 314 314 313 315 315 312 310 310 309 310 313 312 312 312 312 312 312 313 315 314 313 315 315 317 317 311 310 311 313 316 316 316 318 315 313 309 307 309 309 309 311 312 313 313 313
302 302 304 307 310 312 314 313 311 311 311 311 313 314 315 317 317 316 316 313 312 313 314 313 313 315 317 316 314 314 315 314 312 312 312 312 311 310 311 311 312 317 317 314 314 315 317 316 313 312 311 310 310 311 314 315 313 311 313 314 313 315 316 316 315 317 318 316 312 309 312 318 320 316 314 312 310 311 310 309 310 310 310 311 311 312 312 313
302 303 304 307 310 314 315 314 312 311 312 312 314 314 315 317 316 316 315 312 310 311 314 314 313 315 316 315 313 313 315 314 313 313 313 312 312 311 310 310 311 314 314 314 314 314 317 316 312 309 308 309 309 309 313 315 313 312 315 315 313 317 323 319 314 317 319 317 313 311 315 320 319 315 311 308 308 310 308 309 311 310 312 311 310 312 312 313
302 304 305 307 312 315 314 313 312 311 312 313 315 315 315 316 317 315 314 312 311 312 314 314 314 315 316 314 313 313 314 314 314 314 313 313 312 312 311 310 310 311 313 314 314 315 316 314 311 309 308 308 309 309 310 312 314 313 313 313 312 316 324 320 312 311 313 315 315 313 315 318 316 314 313 311 312 312 310 308 308 309 311 311 310 312 313 313
303 304 306 309 313 315 314 312 311 312 312 314 315 315 315 316 315 314 314 314 313 313 314 315 315 315 316 314 313 314 314 313 314 314 314 314 313 312 311 310 309 309 312 313 313 315 315 313 310 311 312 308 306 309 309 309 312 314 313 313 311 313 319 320 316 312 311 314 317 316 314 315 316 315 316 315 313 314 315 312 306 306 309 309 311 313 313 313
303 306 309 312 314 315 314 312 311 312 313 314 315 315 316 315 312 312 314 315 315 315 315 317 316 315 315 314 313 313 314 314 314 314 314 314 314 313 311 311 309 308 309 310 312 314 315 314 310 310 313 309 306 310 311 309 308 311 312 313 314 315 315 315 316 315 313 313 317 319 314 313 315 316 316 315 314 315 315 313 310 308 307 308 312 314 313 313
305 309 312 313 314 314 313 312 312 313 314 315 314 314 315 314 311 311 313 315 316 316 317 317 317 315 314 314 314 313 315 315 313 315 315 314 315 313 311 311 310 308 307 309 313 313 313 318 315 310 311 311 310 311 313 312 309 309 310 310 313 316 315 315 315 314 316 315 316 319 316 313 314 316 317 316 317 318 313 313 316 311 307 310 313 313 313 313
309 312 313 313 313 313 312 312 312 313 314 315 314 314 314 313 312 311 311 314 316 316 317 317 316 316 314 314 314 314 315 315 313 315 316 315 314 312 311 311 310 308 307 309 314 312 311 316 317 311 309 311 313 312 312 313 311 311 312 311 311 311 314 317 314 313 317 318 317 317 314 316 319 317 315 314 315 316 314 315 316 310 307 311 312 312 313 313
312 313 313 314 313 312 312 312 313 313 313 314 314 313 312 312 312 311 310 313 316 316 316 316 316 316 314 313 314 314 314 314 313 315 316 314 314 312 311 311 310 308 308 310 313 312 311 314 315 313 311 312 314 312 311 313 313 312 312 312 312 312 315 316 313 313 316 316 319 317 311 317 322 314 311 314 315 313 313 312 310 309 309 311 311 311 312 313
313 312 313 314 313 312 313 313 313 313 313 313 313 313 312 311 312 312 312 313 315 316 315 315 316 315 314 314 314 313 314 314 313 314 315 314 314 314 312 310 309 308 308 310 311 311 313 315 314 313 313 314 312 308 305 309 314 315 313 312 312 313 315 314 313 314 314 312 315 315 311 314 318 314 311 312 312 309 308 307 306 308 310 311 310 310 312 313
312 312 312 313 313 312 313 313 313 313 313 313 313 313 312 311 310 311 312 313 314 315 315 315 315 314 314 314 313 313 313 313 314 314 314 314 313 313 311 309 308 308 309 311 311 310 312 316 315 313 314 315 313 309 305 307 312 314 314 312 311 312 313 315 317 317 316 314 313 312 312 312 316 320 312 305 305 306 305 306 306 307 309 310 310 310 311 312
312 312 312 313 313 312 312 313 313 313 312 312 313 313 311 310 310 310 312 314 314 314 314 314 315 314 314 313 313 313 313 314 314 313 313 313 311 310 308 308 309 309 309 311 311 311 314 315 314 313 315 316 317 315 312 311 311 314 315 311 310 314 314 313 315 314 313 317 316 313 313 312 316 323 315 308 310 309 304 305 307 308 309 310 310 311 311 312
312 312 312 313 313 312 312 313 313 313 311 310 312 312 309 310 311 310 312 313 313 314 314 314 314 314 314 313 313 313 314 315 314 313 313 313 310 308 307 308 309 309 310 310 309 312 318 317 313 314 315 315 315 315 315 313 312 313 316 312 310 313 313 312 315 313 311 315 316 313 313 316 320 320 316 315 318 314 308 306 307 309 309 309 310 310 311 312
312 311 312 312 312 312 311 311 312 313 312 310 311 310 309 310 311 311 312 313 312 313 315 314 314 314 313 314 313 313 313 315 314 312 311 312 313 309 306 308 310 309 310 311 308 312 320 317 312 313 313 312 314 316 316 316 314 313 314 313 311 312 313 315 318 316 313 314 315 313 312 316 318 317 319 320 317 317 314 307 306 309 309 309 311 311 311 311
311 311 312 312 311 312 310 308 310 312 312 311 311 309 308 310 311 311 312 313 312 312 314 314 314 314 313 313 313 313 313 314 314 312 311 312 314 311 307 308 310 309 310 310 309 314 320 316 312 314 313 313 319 320 316 316 315 314 314 313 313 313 313 315 315 313 315 315 313 313 312 312 313 315 321 323 318 319 315 306 306 310 309 310 312 311 311 311
310 310 311 312 312 312 311 309 309 311 312 311 311 310 309 310 311 312 312 311 311 312 313 313 314 314 313 313 314 313 313 313 313 312 312 312 312 310 308 309 309 309 311 310 309 313 316 314 313 314 313 314 321 321 316 315 315 314 314 313 313 313 313 314 313 312 314 313 312 314 315 313 311 312 317 319 316 314 311 307 308 309 309 311 311 311 312 312
310 311 310 311 312 312 311 309 308 309 311 312 311 310 309 310 311 313 312 310 311 312 313 313 313 313 313 313 314 313 313 313 312 311 311 312 311 310 310 310 310 309 310 311 311 311 312 314 314 313 312 313 318 319 316 316 315 314 314 313 313 313 312 313 313 312 312 312 313 316 317 315 313 313 315 313 308 306 307 307 307 308 309 310 311 311 312 312
310 311 310 311 312 312 310 309 308 309 310 311 311 310 310 311 311 312 312 311 311 313 313 313 313 313 313 313 314 313 312 313 313 311 311 312 311 311 311 311 311 310 310 311 311 310 312 314 313 312 312 312 314 315 314 314 316 315 314 313 312 313 313 312 312 313 313 312 312 313 314 316 314 311 310 308 305 306 307 306 307 308 309 310 310 311 311 312
310 311 311 311 312 312 311 309 309 310 310 311 311 310 310 311 311 312 311 311 312 312 313 313 313 313 313 313 314 313 312 313 313 312 311 311 311 311 311 312 311 310 311 311 312 311 312 313 312 312 314 312 311 313 313 313 314 314 313 313 312 312 312 312 312 312 312 312 313 312 311 314 315 311 307 306 305 305 305 306 308 310 310 310 311 311 311 312
310 311 310 310 311 311 311 309 309 310 311 311 311 310 310 311 311 312 311 311 311 312 312 312 313 313 312 313 314 313 312 312 311 310 310 310 310 309 310 311 310 310 311 312 313 314 313 314 313 313 313 312 309 312 314 314 313 312 312 312 312 311 312 312 312 312 312 312 312 312 311 312 314 315 314 313 311 307 305 308 310 310 311 311 311 311 312 312
Wind_Speed
28 28 30 30 29 32 35 34 33 34 34 35 35 33 32 31 30 27 25 24 23 26 30 34 34 31 28 26 23 22 23 22 18 16 16 16 15 15 15 15 14 12 11 11 11 9 7 8 9 7 4 4 5 4 4 4 5 2 2 2 2 3 3 4 5 5 3 2 2 7 13 11 7 11 10 7 10 10 11 16 12 15 18 10 8 7 14 26
29 29 28 30 30 29 33 36 35 33 34 35 36 35 32 31 32 30 28 27 25 24 25 28 32 32 30 27 26 23 22 23 21 23 22 16 13 14 15 14 13 14 17 17 14 10 6 6 8 8 5 4 4 2 3 2 6 2 2 2 3 4 3 3 4 5 3 3 3 6 11 11 9 13 13 6 6 8 8 12 12 14 18 14 11 9 15 26
28 29 28 27 30 29 28 34 37 35 34 34 36 37 34 32 32 32 30 29 29 27 27 29 30 33 32 29 28 23 20 21 23 30 30 21 15 14 14 13 12 13 14 14 13 12 7 5 5 4 2 5 3 2 1 2 4 3 2 1 3 4 4 5 4 4 4 5 5 5 9 11 10 13 14 8 5 7 9 14 14 16 20 17 14 11 17 26
26 27 28 26 28 31 29 30 35 37 36 34 35 38 38 34 32 33 33 31 30 30 30 32 31 32 33 30 27 23 19 15 22 32 32 26 23 20 18 16 16 16 15 13 13 12 7 4 4 3 5 5 4 5 5 5 4 3 3 4 5 2 3 7 5 3 5 5 6 4 6 9 11 13 14 10 6 4 15 24 22 21 22 19 16 14 19 25
27 26 27 28 26 29 32 30 30 34 38 36 33 36 40 37 35 34 34 35 32 31 33 33 33 31 31 30 27 24 16 6 15 27 28 28 30 28 25 22 21 20 18 16 14 13 7 6 8 8 7 5 5 5 8 10 5 3 2 7 11 5 3 9 5 2 6 4 6 5 5 7 11 13 16 15 9 8 18 26 25 22 21 20 19 17 21 25
27 26 26 28 27 27 31 32 29 28 35 38 33 34 39 39 37 35 34 36 35 33 33 33 33 31 29 28 26 24 17 5 3 8 13 22 27 29 28 25 25 23 20 17 15 14 9 9 10 10 8 5 8 7 8 11 4 2 2 5 12 11 7 11 9 7 10 5 6 6 7 9 11 9 14 19 18 13 13 18 22 22 19 19 20 19 21 24
27 27 26 27 28 27 28 33 34 28 29 38 36 32 36 39 38 37 35 35 37 36 34 34 32 30 29 27 26 25 25 17 8 7 5 8 19 25 27 27 27 24 21 19 17 16 12 11 12 13 9 4 9 9 8 10 3 2 3 4 10 11 10 11 13 13 11 7 8 7 8 11 14 8 7 20 28 20 9 9 15 20 19 19 21 20 21 22
25 26 27 27 28 28 29 32 35 31 27 32 38 33 32 38 39 38 37 35 38 38 35 35 32 30 29 30 29 25 28 31 21 8 4 5 12 23 27 27 27 24 22 21 20 18 14 14 15 13 9 4 8 9 7 7 4 3 3 4 5 7 10 13 15 14 11 7 7 8 8 8 14 9 5 18 27 22 15 10 9 16 21 21 22 21 21 23
24 25 26 27 28 28 29 33 34 32 29 29 35 38 33 37 41 38 38 37 37 39 38 37 35 32 29 31 31 21 28 36 29 24 11 2 5 18 25 26 25 23 21 21 20 18 17 18 20 16 9 7 8 7 8 6 4 6 5 5 4 8 13 15 13 10 8 6 5 8 4 3 10 7 8 20 22 18 19 16 11 14 20 22 22 22 22 23
23 24 24 25 28 28 28 32 34 32 34 31 31 39 36 36 42 40 39 38 37 38 39 38 37 34 31 33 27 15 23 32 30 32 25 15 9 11 17 20 20 19 18 20 19 19 20 19 21 19 9 6 8 8 9 5 4 4 2 7 8 9 14 13 9 9 8 5 5 8 2 0 6 4 7 16 15 16 20 20 16 15 19 23 22 23 23 24
24 24 24 25 26 29 28 30 34 33 36 36 32 35 37 36 40 41 39 39 38 37 39 39 38 36 34 35 27 15 20 27 31 33 29 27 21 14 15 16 14 13 13 18 20 19 20 18 18 19 8 5 9 7 9 7 5 3 1 6 9 9 12 12 10 11 8 3 5 7 3 0 3 3 11 13 10 12 18 21 20 17 19 22 23 23 24 25
25 25 24 25 25 28 30 29 32 33 36 40 36 33 36 35 37 42 41 39 39 38 39 39 38 38 35 33 33 26 23 25 26 28 29 29 26 22 17 13 11 12 12 15 20 19 18 17 19 19 8 6 8 3 8 10 7 4 2 3 5 4 8 11 8 7 5 2 3 5 1 3 1 8 15 13 10 10 14 19 20 20 20 22 24 25 25 25
25 26 24 25 26 27 29 30 30 31 35 40 38 34 36 36 35 42 45 41 41 39 39 39 38 39 34 29 34 34 28 24 21 20 24 25 24 23 18 14 12 12 11 13 17 18 17 18 20 21 11 8 9 4 5 8 6 4 1 1 3 3 5 6 4 5 4 2 3 7 2 5 6 16 15 8 11 11 13 18 20 21 21 22 25 26 26 26
25 26 25 24 25 26 28 30 31 30 32 38 40 35 35 36 34 40 47 44 41 40 38 38 37 38 35 26 26 36 33 23 20 21 21 20 21 22 19 15 13 12 12 13 16 17 18 19 20 20 12 8 8 5 3 2 3 3 1 1 0 1 5 4 1 4 4 4 5 6 3 5 8 15 12 8 13 13 15 18 20 22 22 23 24 26 28 27
25 26 27 26 25 26 28 29 32 32 31 34 39 37 35 36 34 37 45 45 41 40 38 38 39 36 28 20 20 33 38 27 22 22 20 19 19 22 21 19 16 14 14 14 17 19 20 21 19 15 10 9 8 4 2 2 2 2 2 2 1 2 4 6 2 7 5 3 6 6 3 6 8 12 11 12 16 16 18 19 20 24 23 23 24 26 27 27
26 26 28 28 27 27 28 30 32 33 32 32 36 38 36 35 35 35 40 47 43 40 40 39 43 38 19 12 18 28 35 35 29 22 19 19 17 19 22 20 17 16 16 16 18 20 21 20 15 10 7 7 6 4 3 1 1 1 1 2 1 3 3 5 3 7 5 1 4 5 2 3 6 6 5 10 15 17 18 19 21 25 25 25 25 25 26 27
26 27 28 29 29 28 28 30 32 33 33 32 33 36 34 33 36 35 35 44 43 41 45 42 47 42 17 9 19 27 34 37 35 26 19 19 16 17 21 22 20 19 19 18 19 20 20 17 11 6 4 4 3 4 4 4 3 0 1 3 3 4 4 4 3 5 5 1 3 5 3 5 7 5 2 3 7 13 18 21 22 23 25 27 26 27 27 28
27 27 29 30 31 30 29 30 32 34 34 32 33 35 32 30 34 34 34 44 48 43 42 42 43 27 12 19 28 33 39 36 36 30 23 22 19 18 21 22 23 23 20 17 17 18 17 12 6 3 3 3 3 5 6 6 7 7 7 5 3 2 3 4 4 3 5 3 3 5 4 6 11 13 12 8 5 9 16 20 21 21 24 26 28 29 29 30
29 28 29 30 32 32 30 30 31 34 34 32 33 33 30 28 29 33 39 45 47 35 23 33 43 20 12 34 38 33 38 37 35 32 27 27 22 20 22 22 26 27 20 12 9 13 13 7 4 4 4 5 5 8 9 7 9 10 7 5 4 3 4 4 4 3 2 3 4 6 6 6 11 15 15 13 10 10 13 16 19 22 25 27 28 31 31 32
30 30 29 30 32 32 32 30 31 33 33 32 32 31 28 24 19 21 37 43 40 40 32 41 58 37 17 30 37 32 33 33 34 34 31 29 27 24 25 25 24 21 14 8 6 10 12 6 5 7 6 8 9 8 6 4 5 6 4 4 5 4 4 4 3 5 2 2 5 5 6 7 11 13 12 10 9 11 14 15 19 22 26 29 30 32 33 34
32 32 30 30 30 32 33 31 30 33 34 33 33 33 30 27 18 13 27 37 40 48 40 43 64 46 17 25 42 42 33 25 29 34 30 29 30 24 22 23 16 8 7 9 8 8 10 8 7 8 7 9 9 6 5 3 4 6 6 5 5 5 5 4 3 3 1 3 4 3 4 8 10 13 14 9 7 11 17 18 20 24 26 28 29 32 34 34
34 34 33 33 31 32 34 32 31 32 34 35 36 37 37 38 32 23 20 19 37 52 36 39 59 39 17 27 44 49 37 21 21 32 32 32 32 22 18 17 10 5 6 10 8 5 7 7 6 8 8 7 6 6 6 5 4 4 4 4 5 4 3 5 3 2 1 4 3 1 2 8 10 13 17 12 11 17 24 23 25 28 27 26 28 30 31 33
36 36 36 36 34 33 34 35 33 32 35 39 40 42 45 46 40 31 21 7 21 46 38 41 49 32 26 32 41 48 37 22 23 34 40 39 34 27 22 15 8 7 7 8 8 7 5 5 9 11 9 8 6 6 7 5 4 3 4 4 4 2 2 4 3 2 1 1 2 1 2 6 7 9 14 16 18 23 28 27 28 29 28 29 30 30 29 29
37 38 39 39 37 35 35 35 35 35 39 41 44 48 48 47 41 36 27 9 6 25 35 45 47 35 34 36 43 46 34 26 29 36 44 42 33 27 23 17 12 9 8 10 10 9 4 4 12 10 5 8 6 5 7 5 5 4 4 5 3 2 3 4 1 2 2 2 1 1 4 6 6 8 11 11 12 18 25 24 25 29 31 32 32 31 31 29
38 40 42 41 39 37 34 35 39 40 41 44 50 52 48 45 42 37 25 9 5 8 19 34 36 31 34 36 40 40 28 23 30 40 45 42 36 24 16 17 13 9 12 13 9 7 5 5 14 11 5 9 7 5 7 6 5 5 5 7 6 5 4 2 0 1 2 3 2 1 3 7 4 8 11 8 4 9 17 16 19 27 29 31 32 33 35 35
40 42 43 43 41 38 35 37 43 43 42 49 54 52 48 45 43 40 21 5 5 3 8 21 23 26 33 34 38 36 21 15 28 45 44 39 40 28 15 12 8 9 14 11 5 3 4 8 13 12 9 9 7 6 6 8 5 4 6 9 7 6 4 2 2 1 2 4 3 1 5 7 5 6 9 7 5 8 11 11 16 25 26 27 31 33 35 37
42 44 44 45 43 40 37 39 43 44 47 53 53 51 49 45 45 39 17 4 7 7 10 16 17 27 34 35 44 31 12 16 25 39 45 38 38 31 18 10 5 8 11 8 4 3 7 10 8 10 11 8 8 8 7 10 8 4 5 10 9 7 7 6 4 4 4 2 3 0 2 5 6 7 6 3 5 8 9 10 14 21 26 28 32 34 36 38
44 46 46 47 47 44 42 42 44 48 55 55 52 52 49 47 44 30 10 6 6 9 11 11 13 28 35 38 46 25 16 31 22 24 44 40 32 28 17 13 9 9 12 11 7 3 9 12 12 14 12 8 9 7 9 12 7 5 4 7 7 6 6 6 5 5 2 3 6 3 1 4 6 6 3 1 5 10 9 9 12 17 25 29 32 35 36 36
45 47 47 48 49 48 46 49 51 54 59 56 51 50 49 48 38 16 5 7 3 5 9 15 15 25 30 29 32 22 23 29 15 20 39 30 25 22 11 14 15 11 12 10 5 2 4 11 16 15 10 8 6 6 10 12 6 3 6 6 3 3 2 1 3 2 2 3 8 4 3 5 8 6 3 1 5 9 8 7 11 18 24 27 29 32 31 30
47 48 48 47 49 49 48 52 59 60 61 57 49 47 49 42 22 7 9 6 4 1 7 16 16 22 29 20 14 15 16 14 17 29 28 17 22 21 13 16 14 10 8 4 3 3 1 5 13 8 6 8 7 5 7 11 9 7 7 5 6 4 4 3 1 3 2 6 6 3 6 4 8 6 7 4 5 7 7 7 9 17 23 24 24 25 24 24
48 49 49 47 47 48 46 54 65 66 61 53 47 48 44 25 8 7 10 3 5 5 5 12 16 21 28 20 10 12 12 9 18 27 16 10 15 15 15 14 7 6 6 5 4 2 5 5 6 3 5 10 9 4 2 5 9 8 5 4 3 1 3 3 3 3 3 7 3 2 4 4 8 7 5 5 6 6 8 8 8 14 19 20 17 15 15 16
49 49 49 48 47 48 51 61 68 66 59 52 51 48 30 9 7 10 4 5 5 6 4 9 15 19 23 19 11 12 14 11 15 20 15 11 9 11 13 11 8 8 7 9 6 1 3 1 2 0 6 10 9 5 2 4 4 5 4 5 4 0 1 1 2 1 5 7 2 2 2 4 10 7 3 6 7 7 10 12 15 17 18 17 12 10 10 11
48 47 47 49 49 49 57 66 68 66 59 56 54 38 14 6 11 12 5 3 3 2 5 11 17 21 22 18 11 11 14 12 16 19 16 12 9 11 10 8 12 8 5 10 7 4 2 5 2 3 4 9 12 8 4 1 4 7 6 7 7 4 4 7 4 2 5 5 2 2 2 4 7 4 7 9 9 15 17 19 23 23 24 24 19 16 14 10
49 47 46 50 49 51 62 68 68 66 62 61 46 20 10 10 9 15 12 4 1 3 8 14 18 21 19 15 14 14 11 10 16 19 16 12 9 10 7 9 15 6 4 8 5 7 9 4 5 7 4 10 13 9 8 7 6 7 4 5 6 5 6 6 5 3 4 3 2 2 2 4 3 3 8 10 13 19 19 18 21 24 27 29 28 27 24 17
48 45 46 48 48 55 66 69 68 68 67 56 26 7 12 11 7 15 14 4 3 5 10 16 19 18 12 10 12 11 5 8 16 15 13 12 11 12 9 11 17 9 7 9 4 6 11 6 3 1 3 11 12 7 8 10 5 4 3 4 5 6 4 3 3 4 3 2 2 3 4 4 4 6 9 8 11 16 18 18 19 24 27 27 28 30 29 26
44 45 47 47 50 61 68 69 67 71 68 41 9 7 14 9 5 10 9 8 8 9 13 14 14 13 9 7 9 7 3 8 16 12 9 11 10 13 12 10 13 10 9 10 3 3 8 4 3 3 3 9 11 10 9 9 7 2 3 6 5 4 6 4 2 0 3 3 3 2 5 5 3 8 10 7 6 10 12 14 17 24 25 23 26 27 28 30
42 45 47 46 55 65 68 69 69 73 63 28 6 9 12 8 6 6 11 15 14 16 16 10 9 9 8 7 7 9 8 9 12 9 9 9 8 12 12 9 13 15 14 12 4 3 6 2 3 1 4 4 6 10 7 5 7 5 5 8 3 3 3 3 2 2 2 5 4 1 6 6 3 6 6 4 6 10 11 9 12 19 19 19 25 25 23 25
44 44 42 48 61 68 70 70 71 69 48 17 8 11 12 11 6 5 15 20 19 19 15 8 7 6 8 10 8 12 15 13 11 9 10 8 6 13 16 11 14 19 16 11 4 2 5 4 3 2 4 2 2 7 4 1 2 4 6 6 5 3 3 2 2 3 3 4 5 3 4 5 6 6 3 3 8 12 14 10 7 10 14 19 24 23 20 21
45 37 36 51 64 69 72 71 70 58 28 9 12 13 10 9 7 10 21 24 21 20 15 10 8 5 8 13 13 15 16 15 15 12 10 9 5 13 21 14 12 19 17 10 5 4 5 5 1 2 2 3 1 4 7 6 1 2 3 5 3 3 4 3 3 4 4 4 5 3 4 4 7 7 5 6 9 9 12 11 7 10 16 21 23 21 17 17
42 27 22 51 67 67 74 72 59 37 12 8 16 12 6 7 9 18 27 26 19 15 16 14 11 9 10 12 13 14 12 14 18 12 9 13 8 8 18 15 9 16 16 8 5 5 4 4 3 0 0 3 3 5 8 10 6 3 4 6 4 2 2 2 2 2 4 4 4 2 5 7 6 5 9 10 10 11 13 11 8 11 14 17 21 20 15 12
48 17 14 56 70 69 73 54 30 15 6 11 16 11 10 8 9 19 28 26 17 10 14 19 19 16 14 14 13 11 8 11 15 10 6 12 11 6 17 22 13 14 14 6 4 6 3 3 6 3 2 4 4 4 3 7 9 8 7 6 6 4 4 3 5 3 3 3 5 3 6 9 5 5 9 10 11 12 12 8 8 12 14 13 13 15 13 11
38 5 22 66 74 74 63 24 8 12 10 14 13 7 10 10 11 18 23 23 15 6 8 16 20 18 16 17 17 13 11 10 13 13 7 14 18 10 16 27 23 20 17 8 5 5 3 5 6 3 3 4 3 3 1 1 4 6 5 6 7 6 6 7 7 4 2 1 2 4 4 9 4 5 7 8 9 9 6 4 7 13 13 11 10 10 11 13
18 8 38 73 82 80 50 9 10 17 7 11 15 9 9 10 12 15 18 19 13 6 8 9 14 15 12 15 16 15 13 10 12 16 10 12 16 10 14 27 28 22 15 7 5 6 4 5 5 3 1 3 4 3 3 3 1 4 6 6 8 7 7 6 4 4 3 4 3 2 5 9 5 2 3 8 11 12 11 9 9 12 12 11 12 11 10 12
21 24 42 70 86 79 39 7 14 16 6 9 15 15 9 6 13 17 16 16 10 8 10 9 12 14 11 13 16 16 15 9 9 13 8 5 8 8 19 32 30 19 13 11 11 9 5 4 5 5 2 2 3 3 3 3 4 4 4 3 5 4 5 5 3 4 3 6 7 5 7 9 4 4 4 7 9 11 16 15 11 12 13 12 10 9 8 9
26 19 30 56 74 66 31 11 17 16 13 11 12 18 12 3 14 24 20 14 10 10 11 11 15 15 12 15 15 16 16 8 7 10 5 3 2 3 19 34 30 19 13 13 16 12 5 4 6 8 8 8 8 5 5 5 4 2 1 4 5 6 8 6 4 4 6 6 7 7 10 8 5 5 6 6 5 8 13 12 10 13 15 12 7 6 7 8
15 6 15 28 40 42 23 15 19 15 16 15 8 14 16 7 12 24 26 17 12 13 11 12 17 15 14 19 16 15 14 3 4 9 7 8 4 1 17 33 29 22 16 19 25 16 3 3 7 8 11 12 9 5 4 7 7 3 2 6 6 6 7 6 5 5 7 3 3 10 13 9 7 5 6 7 5 7 8 7 7 11 12 9 5 6 7 9
11 5 10 12 15 17 10 10 13 11 15 17 8 8 15 12 9 18 24 15 11 13 7 7 17 15 15 20 15 15 13 4 4 11 8 8 4 2 16 25 23 25 22 22 27 16 3 5 10 11 14 11 6 6 7 10 11 10 9 10 10 9 9 7 7 11 7 5 9 16 12 12 12 7 7 8 6 7 7 6 8 8 8 8 7 8 8 8
9 6 16 25 18 11 10 10 9 10 16 17 10 9 14 15 13 16 16 6 7 14 8 6 15 17 21 24 16 14 13 6 6 11 8 7 5 6 10 10 13 26 24 17 20 14 4 8 11 11 12 8 5 8 9 10 10 11 14 14 14 14 14 13 15 19 12 9 18 15 11 17 15 7 9 10 7 7 6 6 7 7 8 10 9 9 9 9
8 8 13 23 16 11 18 18 14 13 15 14 10 10 16 18 16 14 11 5 7 12 11 12 16 18 21 22 17 16 16 12 11 12 11 13 13 11 10 6 10 21 20 12 12 10 6 8 10 11 11 6 6 8 9 10 8 8 13 15 14 16 17 16 20 24 19 20 21 7 3 12 10 7 11 9 5 6 6 7 9 8 9 10 9 10 11 12
12 13 14 13 8 11 17 17 16 14 11 10 9 9 14 20 19 14 9 11 12 9 10 16 20 20 21 21 18 18 21 22 21 20 19 19 16 13 13 12 10 14 15 11 8 7 7 7 8 9 7 4 5 5 6 8 9 8 11 12 12 14 16 19 25 25 18 21 21 6 3 8 6 6 8 5 3 6 8 9 9 7 8 10 11 13 14 14
16 22 28 19 8 12 16 12 13 14 9 8 9 10 12 17 21 16 8 11 15 14 13 19 22 19 19 22 21 20 25 29 27 28 27 21 16 11 7 9 13 14 12 10 7 6 7 5 5 8 7 5 3 6 7 6 7 5 6 11 15 17 18 21 21 16 13 14 14 10 9 9 5 4 5 4 5 7 9 11 10 8 11 14 14 14 13 12
20 26 35 24 9 9 15 12 12 13 9 8 9 11 12 15 18 17 11 9 12 15 19 24 25 20 17 22 26 29 34 29 19 20 22 16 14 13 13 13 16 17 12 7 4 4 6 6 4 7 9 3 1 6 10 8 6 3 8 15 21 20 18 16 12 11 13 12 11 12 10 6 6 6 5 4 6 8 12 16 16 15 16 15 15 14 13 14
Wind_Direction
230 234 234 230 224 221 220 219 217 216 218 220 218 218 217 210 203 207 210 204 197 194 197 200 195 194 198 197 205 210 205 204 206 210 212 213 216 224 234 237 238 236 236 259 273 277 287 300 318 322 293 184 122 24 342 292 272 302 99 139 201 189 195 188 185 191 169 316 278 207 198 182 183 192 190 190 197 209 202 199 202 205 211 223 231 233 192 184
226 230 233 233 229 223 220 220 219 216 217 221 219 217 217 212 205 205 210 208 203 196 194 199 196 194 197 198 207 213 210 210 221 227 221 214 217 224 232 236 240 245 249 258 262 257 273 303 303 308 295 174 129 31 2 289 244 235 102 152 213 198 215 210 187 189 191 305 274 220 211 201 201 185 180 191 193 191 195 206 214 213 214 219 227 222 193 186
225 227 230 233 231 227 223 220 219 217 216 219 220 219 216 212 208 206 208 210 207 201 197 199 199 200 200 199 201 205 211 218 233 234 223 216 218 224 227 228 234 243 243 248 254 248 260 294 284 292 233 166 155 222 282 313 253 215 144 157 244 247 268 265 242 231 249 273 275 241 214 211 214 190 184 192 172 185 206 209 212 215 214 216 219 208 193 190
227 227 226 230 234 230 227 224 221 219 218 219 221 220 217 215 212 209 208 210 210 205 200 200 202 204 204 202 201 207 217 230 246 238 226 221 224 229 230 231 235 241 243 250 252 240 245 252 207 169 157 166 172 187 209 255 259 206 164 173 219 273 298 277 273 272 283 270 266 243 197 211 211 195 189 173 144 225 229 216 215 219 212 208 211 203 193 194
230 229 225 227 234 231 229 229 227 223 220 221 222 220 217 217 215 211 209 209 210 208 204 203 205 207 207 205 207 214 214 236 258 244 239 233 231 232 232 236 239 243 249 257 249 227 228 229 198 163 153 170 177 172 204 225 231 218 197 177 207 241 291 283 295 322 314 285 246 216 187 208 196 197 198 180 177 228 232 225 223 225 217 212 214 205 197 198
233 231 226 227 230 231 231 231 231 228 224 222 222 221 217 216 215 213 212 209 208 210 207 205 207 208 210 210 213 212 201 189 241 235 241 232 229 231 231 235 240 246 250 253 243 223 220 222 209 185 160 149 180 185 206 213 208 237 257 175 215 248 261 279 299 307 310 272 226 215 207 200 180 202 208 198 211 223 236 238 230 226 221 219 219 210 204 204
234 233 229 227 227 229 231 231 232 232 230 225 224 225 219 216 216 215 215 211 207 210 209 207 206 208 210 210 213 209 204 211 190 108 84 202 214 223 229 234 237 243 244 240 232 221 220 219 215 198 171 140 185 191 207 216 235 262 258 191 219 253 259 286 309 308 305 266 244 233 211 195 184 200 213 215 223 223 236 254 236 225 218 217 216 216 217 216
234 234 232 229 228 228 228 229 230 232 233 228 225 227 222 219 219 215 214 214 208 208 210 209 206 206 206 205 202 201 208 213 212 204 63 83 195 210 220 227 229 235 236 234 233 228 222 217 219 203 183 197 187 177 187 208 253 244 229 217 233 273 279 301 312 309 305 278 249 220 212 203 196 197 222 231 230 226 230 249 247 224 216 216 217 219 222 221
234 236 233 231 230 228 227 226 228 231 231 231 227 226 224 221 220 216 213 214 209 207 209 209 208 205 205 206 197 200 218 214 214 229 241 5 187 200 211 218 221 226 230 234 237 234 224 214 214 207 202 209 183 173 173 175 227 211 213 239 256 290 297 308 307 306 304 276 216 199 219 213 197 201 251 244 240 235 232 238 245 225 217 218 219 222 224 225
236 236 235 234 231 231 230 224 226 230 229 232 231 226 226 222 219 217 213 212 210 208 207 207 209 205 202 203 195 202 226 217 216 228 236 247 237 190 195 208 215 220 228 233 232 230 225 219 212 205 215 211 181 186 180 170 209 185 214 244 229 259 296 308 290 287 293 276 214 196 179 114 181 172 249 246 243 240 232 232 235 227 223 221 221 224 225 229
237 237 237 235 233 233 232 226 226 228 228 231 233 229 228 223 217 217 215 212 212 211 210 208 206 206 202 199 198 205 217 217 220 224 231 240 241 220 189 183 199 221 235 234 228 226 225 226 214 199 210 212 181 186 195 196 210 191 222 244 232 244 286 295 277 277 277 273 231 195 164 166 133 177 239 238 235 237 228 227 230 228 228 225 224 225 226 230
236 237 238 236 234 233 232 230 226 226 227 229 233 231 228 225 218 217 215 212 213 212 212 210 205 206 204 201 209 211 210 217 220 221 228 235 239 238 224 208 228 250 257 244 229 222 218 221 210 195 192 184 161 151 216 210 208 224 202 231 267 274 280 277 265 262 247 252 216 154 181 271 180 232 240 235 235 240 229 225 227 229 231 228 226 225 227 230
238 237 239 237 235 233 232 232 228 226 226 227 231 230 229 229 223 217 214 211 212 211 209 210 208 205 200 204 215 213 211 216 215 216 223 230 236 237 237 237 245 251 256 255 238 220 210 212 208 199 191 170 158 130 192 191 183 211 181 148 312 313 276 269 253 234 205 222 180 142 231 271 241 240 237 231 236 237 229 226 227 229 231 230 228 228 229 231
240 240 240 240 238 235 233 231 229 228 225 226 228 229 231 232 230 220 211 209 209 206 206 208 207 203 200 206 214 212 213 212 212 215 215 220 227 226 226 225 225 231 238 244 236 219 205 205 204 202 198 179 173 156 136 131 151 168 149 125 54 222 261 290 224 200 189 213 190 153 230 263 256 250 243 241 243 238 233 230 228 229 231 232 231 230 232 233
244 245 243 242 242 238 234 231 230 230 227 226 226 229 232 232 233 223 211 207 206 204 204 205 205 200 200 210 211 211 213 210 211 218 217 215 214 212 213 211 210 215 219 221 220 211 200 198 197 194 192 183 174 151 113 9 17 90 161 238 2 173 265 306 244 190 204 224 183 163 225 256 267 270 262 249 242 237 235 234 232 231 231 231 233 232 233 235
247 248 247 246 245 242 237 232 230 231 228 227 226 227 232 234 232 228 215 204 202 203 200 201 201 197 198 212 204 206 210 211 213 211 210 212 212 209 205 199 199 200 202 207 209 203 194 189 190 187 179 174 168 136 123 174 314 25 143 202 241 181 226 301 272 206 213 233 184 190 225 258 276 284 272 247 235 231 233 236 236 234 233 231 232 234 235 237
250 250 249 249 248 246 241 234 230 230 229 228 226 224 232 238 232 233 224 207 203 201 200 201 196 193 203 203 189 197 203 207 210 203 197 201 209 215 201 184 181 187 190 193 196 190 182 179 183 195 182 163 164 156 161 189 195 204 186 202 224 211 205 231 262 226 199 197 226 210 208 239 265 278 280 268 239 227 231 237 238 236 235 233 233 235 237 238
253 252 251 251 250 250 246 239 232 229 230 229 226 223 229 239 234 235 232 212 200 197 201 199 189 186 204 199 192 197 200 202 202 197 192 190 200 215 202 182 175 175 172 176 181 175 169 169 168 176 183 177 167 173 194 198 185 193 198 201 221 255 247 229 249 226 175 192 235 206 210 240 260 269 266 267 254 233 239 243 244 244 241 238 237 238 239 241
252 252 252 251 251 251 249 244 235 230 230 229 226 223 230 241 235 235 234 210 186 184 197 184 180 188 210 198 195 194 198 201 197 194 193 185 186 195 189 179 172 165 159 162 175 171 163 149 157 184 190 187 187 195 206 203 196 199 191 191 189 200 254 245 253 282 167 191 236 214 215 224 241 261 264 257 247 241 252 254 248 248 246 243 241 241 243 244
253 252 252 252 251 250 249 246 239 232 229 229 225 223 229 229 220 229 234 222 194 185 190 180 183 195 198 184 182 184 189 195 192 189 191 185 177 173 168 162 159 157 159 160 172 176 166 163 195 195 187 187 197 199 188 177 193 190 170 200 202 192 247 254 251 318 12 189 253 236 229 239 240 257 264 250 242 240 246 251 249 248 247 245 243 243 245 247
254 253 254 255 253 249 247 245 241 234 228 228 224 222 224 213 204 211 218 230 222 202 195 188 189 194 191 173 179 180 172 174 183 182 184 182 172 164 160 157 149 153 162 138 134 158 171 195 200 180 182 189 195 184 155 141 165 179 180 197 216 206 237 250 227 306 43 173 269 292 246 257 254 261 263 236 212 239 239 240 248 251 251 250 248 247 248 250
253 254 256 257 255 249 244 241 238 233 229 229 226 225 226 217 217 218 205 232 232 216 208 194 191 190 183 179 185 183 168 154 168 173 176 175 171 167 162 163 158 151 146 128 124 153 185 207 184 169 179 176 181 183 182 193 167 164 165 165 214 218 238 262 248 296 132 177 254 312 230 254 256 260 263 243 223 245 248 243 248 252 252 252 253 254 252 251
255 255 257 258 257 250 243 239 235 232 228 227 227 226 224 219 220 220 215 266 230 212 207 193 188 180 167 170 179 180 171 161 164 171 176 174 173 173 164 163 164 141 150 160 157 170 187 207 190 179 173 164 175 185 184 211 201 164 142 148 212 213 181 243 259 299 285 154 216 183 266 262 257 265 268 250 236 248 255 252 251 251 251 253 256 258 258 254
257 257 256 256 256 250 243 238 236 235 229 226 227 225 221 220 224 223 221 277 270 205 200 191 185 179 169 165 173 178 173 171 173 172 175 173 168 169 165 163 156 143 176 183 166 173 191 208 183 165 152 165 168 177 174 196 222 212 179 164 177 180 194 228 275 285 284 345 80 96 312 278 238 250 263 252 235 247 255 251 248 248 249 252 253 255 257 255
259 258 255 253 253 248 242 240 238 235 230 228 226 222 221 222 226 226 223 268 304 202 196 189 182 178 171 166 171 174 167 172 179 173 173 174 168 159 159 165 161 165 183 176 159 180 212 191 164 150 165 177 170 193 185 178 205 240 213 175 170 186 210 249 289 13 331 308 291 123 275 274 252 241 248 256 247 247 253 249 245 247 248 248 249 250 253 253
260 259 255 254 252 245 241 242 238 233 229 229 224 219 220 221 224 224 219 259 258 202 187 183 175 174 174 167 163 164 164 177 183 176 172 177 176 162 149 162 172 178 171 162 154 191 204 176 159 159 173 172 180 209 194 166 171 241 211 168 172 203 224 235 164 168 222 258 285 144 222 265 296 253 239 255 276 262 260 261 250 249 249 247 249 251 252 251
261 259 255 254 251 243 242 242 236 229 225 226 222 217 217 217 221 220 212 264 234 181 177 180 169 175 177 166 159 161 165 156 165 176 174 177 179 169 162 171 168 167 154 142 183 202 159 158 156 160 161 167 197 209 191 166 163 234 203 156 169 206 224 218 183 216 238 275 293 237 208 269 279 250 232 236 283 278 270 271 262 253 250 249 251 253 253 252
261 258 256 254 249 244 244 241 232 223 221 222 218 214 214 213 214 208 203 260 204 144 164 172 160 172 173 165 162 156 141 147 152 180 177 176 177 171 177 185 164 154 159 161 190 186 142 163 174 165 167 190 199 185 163 160 181 237 178 139 171 194 212 213 201 227 293 349 264 230 90 273 265 256 249 174 256 263 261 263 264 256 250 248 250 253 255 257
260 258 256 254 250 244 242 237 228 221 220 219 214 211 210 209 206 195 219 244 151 113 161 157 155 163 159 161 165 150 140 152 153 170 173 174 176 175 177 174 152 139 171 180 174 154 158 183 178 164 174 195 171 136 151 165 196 206 121 86 74 80 68 138 191 196 43 296 251 209 156 246 267 246 203 197 247 246 256 259 259 260 255 250 250 253 257 259
260 260 256 254 252 247 242 232 225 224 221 214 209 207 202 199 195 196 228 208 108 242 174 150 157 155 150 157 172 155 142 143 138 153 169 176 172 169 147 146 138 126 176 200 147 182 345 160 169 166 185 172 128 108 157 169 157 122 107 70 52 48 47 54 70 84 93 264 267 207 174 216 277 247 177 199 220 201 224 249 259 264 261 257 257 258 259 258
262 261 259 254 249 246 237 221 219 222 217 207 202 198 191 186 189 222 222 145 96 226 190 149 155 153 155 160 168 162 143 123 137 147 162 178 166 154 133 137 131 116 168 201 194 254 29 107 172 195 166 145 117 107 129 145 142 128 124 116 91 1 28 35 4 69 205 246 280 266 171 167 251 244 164 214 235 199 205 221 242 256 260 263 262 259 257 254
263 262 261 250 242 242 228 215 215 213 207 200 193 188 181 179 215 215 197 105 146 204 184 152 153 156 162 159 159 162 143 136 149 148 157 175 170 165 162 169 166 150 176 192 183 62 65 147 253 129 169 163 139 133 33 34 123 142 137 141 148 285 37 213 246 170 231 247 232 195 151 188 243 252 229 257 270 245 225 221 233 245 257 263 254 248 260 255
264 264 259 243 237 239 225 215 210 202 196 191 184 179 181 221 209 190 169 157 176 165 156 158 157 160 162 156 158 158 144 148 157 152 160 172 174 180 182 174 170 169 178 171 151 130 174 300 287 156 200 186 163 159 179 165 166 170 165 168 174 168 179 205 216 224 244 253 234 181 165 243 270 274 231 232 243 244 242 241 246 253 260 264 259 257 266 265
268 265 253 237 234 231 218 209 202 193 186 182 179 178 201 216 190 174 183 198 109 127 153 157 158 162 165 162 163 158 145 154 160 156 160 167 175 183 178 174 181 174 106 148 160 165 179 242 208 183 191 180 176 178 165 139 157 183 159 148 179 187 185 195 199 209 227 247 271 232 191 206 225 256 233 231 252 261 264 262 261 263 263 264 264 261 260 261
270 258 246 241 234 220 208 200 193 187 179 175 177 200 203 199 177 179 182 154 132 148 148 155 156 160 169 165 167 170 150 154 160 157 162 167 176 182 178 185 187 168 132 165 186 169 181 219 240 185 139 163 170 166 131 115 146 208 119 132 208 202 147 125 188 183 161 215 254 221 224 218 209 275 274 255 267 274 273 271 266 263 262 261 262 261 257 254
267 250 245 244 225 208 199 192 186 182 175 171 185 219 200 198 182 180 163 141 155 142 139 159 162 160 167 160 171 178 115 144 157 155 167 175 182 186 184 188 185 170 158 164 144 151 179 219 329 34 115 171 169 160 156 155 165 159 148 185 213 174 124 106 228 33 87 212 249 206 246 287 307 286 275 250 263 280 271 267 260 257 259 258 259 260 255 249
262 254 248 233 210 197 191 186 182 177 173 174 214 198 195 203 176 151 147 150 152 143 143 166 174 164 157 144 170 167 124 131 157 154 159 170 187 191 189 192 186 185 180 166 161 203 163 119 337 117 144 198 165 145 159 178 150 135 188 194 145 93 116 116 204 330 90 223 270 246 240 269 271 266 274 242 249 270 267 254 251 257 257 251 253 257 253 247
261 251 233 212 198 190 185 183 179 173 170 179 207 190 196 195 164 144 160 157 154 154 155 167 174 172 163 152 164 171 151 147 163 159 155 170 195 187 187 193 191 194 188 159 147 211 146 107 317 242 150 165 119 130 151 247 140 147 184 175 136 164 210 144 168 198 178 228 274 304 281 256 217 232 297 276 240 249 258 256 253 258 250 245 250 255 256 250
253 231 208 197 191 184 180 178 174 171 172 185 191 193 195 175 154 175 175 164 161 167 167 170 168 165 176 165 161 173 170 162 164 162 162 179 196 186 188 191 188 192 186 158 159 188 144 127 250 265 171 142 110 164 187 197 156 75 136 166 165 169 185 175 166 173 173 215 250 297 318 260 218 202 197 230 241 241 253 262 259 246 242 244 248 255 264 257
221 198 191 189 186 180 175 172 170 172 182 187 186 187 165 153 160 180 185 175 167 174 173 168 164 161 174 171 163 174 177 162 165 168 169 177 180 187 192 192 182 182 175 150 151 163 139 134 148 248 321 149 181 214 193 175 163 141 153 178 193 144 141 171 172 152 149 181 211 264 283 259 239 193 185 208 233 242 246 249 251 254 259 259 253 254 265 258
183 177 180 179 179 173 168 167 169 174 185 183 189 182 160 162 156 173 190 187 173 182 179 167 165 164 164 165 169 176 169 156 166 171 162 176 181 191 196 191 173 160 161 137 147 168 161 142 142 137 160 181 229 263 196 168 172 176 178 184 180 151 121 163 218 214 117 166 186 183 268 268 248 194 195 198 212 233 244 238 242 262 278 288 271 256 256 247
168 189 171 173 174 168 163 164 169 171 183 183 185 172 152 157 158 169 188 190 180 182 177 167 167 165 162 167 169 168 164 161 172 177 178 189 191 197 196 186 167 157 166 161 161 168 102 102 124 131 187 206 270 315 328 224 170 160 196 198 171 166 161 175 215 213 100 224 176 119 269 274 255 198 209 216 223 249 274 250 249 266 276 290 290 269 251 236
161 152 163 170 173 167 162 167 170 169 183 174 173 172 150 154 169 173 180 186 187 173 163 168 167 164 165 166 161 161 163 164 179 185 184 191 195 194 178 170 159 159 170 158 153 165 132 117 115 80 318 306 333 355 354 331 123 167 231 205 167 187 188 171 189 161 150 228 188 120 265 269 285 288 260 270 274 286 291 276 274 284 282 279 278 271 250 226
142 141 156 167 170 167 165 175 170 167 159 162 180 181 162 162 177 175 179 185 186 168 162 165 165 166 168 160 158 165 165 162 191 196 185 179 196 181 163 163 160 164 180 178 172 172 161 142 127 119 101 11 348 330 301 263 208 198 224 167 150 153 125 118 120 117 198 221 167 165 248 255 283 327 308 293 292 286 275 266 268 277 277 276 274 261 237 211
136 142 151 161 167 168 168 170 167 169 163 160 181 179 172 197 179 176 180 184 188 176 161 163 166 162 157 156 159 170 170 162 179 185 165 134 179 171 163 165 166 173 182 166 152 145 144 160 155 155 164 178 194 206 208 197 188 206 106 122 155 149 138 157 141 133 225 221 149 184 240 259 301 326 313 302 300 282 274 270 261 257 263 273 272 241 214 204
142 155 143 153 166 168 166 157 160 173 171 162 168 176 175 172 173 180 182 183 198 188 165 164 166 156 157 160 158 171 177 150 139 165 158 154 164 219 170 168 170 174 165 147 145 142 120 175 174 178 189 195 192 179 144 126 131 171 137 125 147 148 144 140 120 175 212 158 151 224 236 255 274 288 300 299 282 268 278 292 277 258 259 265 247 215 206 207
155 162 150 148 156 166 162 141 153 173 171 167 166 168 171 165 164 184 187 189 196 180 159 163 166 159 162 160 153 166 168 85 112 162 162 156 134 94 166 170 172 169 159 152 155 147 99 190 185 190 200 199 171 159 151 136 152 170 154 151 163 158 152 148 178 214 185 117 245 239 221 234 244 237 262 276 268 258 268 284 281 266 248 235 220 215 212 212
161 148 165 161 151 169 176 145 139 157 165 172 172 161 168 170 171 183 188 198 186 172 157 161 171 168 164 161 157 161 156 120 145 163 158 157 132 115 157 178 183 170 161 161 168 155 140 201 192 187 196 188 143 162 163 149 161 168 164 172 172 167 176 183 208 222 194 191 243 234 200 229 235 202 226 244 238 243 265 273 264 247 227 221 215 217 223 226
140 103 152 163 156 167 166 148 132 146 166 169 165 172 174 172 178 186 181 168 183 184 172 162 170 171 166 165 160 158 164 165 168 175 174 165 155 146 154 182 203 182 168 166 181 172 167 194 188 177 182 172 147 166 164 149 145 160 178 183 172 177 190 193 215 227 213 216 236 223 171 247 241 193 220 238 228 233 261 265 248 237 232 229 225 226 228 230
152 142 149 153 148 160 160 151 142 150 170 166 160 180 177 173 180 187 186 176 172 183 178 163 164 166 166 171 170 171 180 179 176 181 178 167 167 171 172 174 181 181 174 169 180 192 192 189 169 155 162 175 159 136 131 144 147 161 187 189 178 186 197 205 219 225 218 225 236 248 333 277 254 217 227 246 249 235 247 253 244 237 235 233 234 233 231 232
160 162 160 150 137 160 161 156 153 156 172 180 170 170 171 178 179 173 195 206 181 171 169 162 161 164 171 179 178 178 186 187 187 184 175 165 164 165 166 168 160 160 171 175 168 180 194 181 135 140 169 209 188 121 107 106 105 126 186 194 191 195 202 213 221 219 214 226 234 248 266 254 237 237 235 247 251 238 242 246 241 233 228 229 234 236 237 242
152 155 160 153 129 157 163 159 165 166 170 178 172 162 165 180 180 169 180 214 202 185 175 166 165 165 171 183 189 193 193 189 176 164 155 137 119 108 105 130 152 157 159 155 127 136 156 144 130 164 179 231 293 132 120 98 99 195 224 203 199 204 211 222 235 225 217 215 213 230 240 200 178 205 216 233 234 228 236 234 229 228 226 226 234 238 248 258